Regional Weather Roundup
Issued by NWS

Home | Current Version | Previous Version | Text Only | Print | Product List | Glossary Off
Versions: 1 2 3 4 5 6 7 8 9 10 11 12 13 14 15 16 17 18 19 20 21 22 23 24 25 26 27 28 29 30 31 32 33 34 35 36 37 38 39 40 41 42 43 44 45 46 47 48 49 50

000
ASUS43 KLSX 211507
RWRMO

WEATHER SUMMARY FOR MISSOURI
NATIONAL WEATHER SERVICE SPRINGFIELD MO
900 AM CST TUE NOV 21 2017

NOTE: "FAIR" INDICATES FEW OR NO CLOUDS BELOW 12,000 FEET WITH NO
       SIGNIFICANT WEATHER AND/OR OBSTRUCTIONS TO VISIBILITY.
       CURRENT SKY AND/OR WEATHER CONDITIONS ARE NOT AVAILABLE FOR
       CHILLICOTHE AND FARMINGTON.

MOZ001>031-035>038-043-044-053-054-211600-
...NORTHERN AND WESTERN MISSOURI...

CITY           SKY/WX    TMP DP  RH WIND       PRES   REMARKS
KANSAS CTY INT CLOUDY    47  27  45 N20G30    29.98R
KANSAS C DTWN  CLOUDY    50  28  42 N13G20    29.99R
LEE`S SUMMIT   CLOUDY    48  29  47 N23G30    29.97R
ST JOSEPH      CLOUDY    45  27  49 N18       30.01R
CHILLICOTHE      N/A     47  28  47 N8        29.98R
KIRKSVILLE     CLOUDY    45  25  45 N16G24    29.93R

$$
MOZ066>068-077>081-088>096-101>105-211600-
...SOUTHWEST MISSOURI...

CITY           SKY/WX    TMP DP  RH WIND       PRES   REMARKS
SPRINGFIELD    MOSUNNY   49  35  58 S6        29.90R
JOPLIN         CLOUDY    50  37  61 W7        29.93R
BRANSON        PTSUNNY   50  32  50 S3        29.91R

$$
MOZ032>034-039>042-045>050-055>058-069>072-211600-
...CENTRAL MISSOURI...

CITY           SKY/WX    TMP DP  RH WIND       PRES   REMARKS
COLUMBIA       CLOUDY    49  36  61 W7        29.91R
JEFFERSON CITY MOSUNNY   46  33  60 CALM      29.93R
ROLLA          MOSUNNY   44  32  62 SW7       29.92R
SEDALIA        PTSUNNY   50  36  58 NW9       29.93R
WHITEMAN AFB   PTSUNNY   48  33  56 NW8       29.90R
WARRENSBURG    CLOUDY    46  32  57 NW7       29.95R

$$
MOZ051-052-059>065-211600-
...EAST CENTRAL MISSOURI...

CITY           SKY/WX    TMP DP  RH WIND       PRES   REMARKS
ST LOUIS INTL  CLOUDY    48  32  53 SW9       29.91R
SPIRIT OF STL  MOSUNNY   49  32  52 SW7       29.91R
ST CHARLES     CLOUDY    45  34  65 CALM      29.91R

$$
MOZ072>076-082>087-097>100-106>115-211600-
...SOUTH CENTRAL AND SOUTHEAST MISSOURI...

CITY           SKY/WX    TMP DP  RH WIND       PRES   REMARKS
CAPE GIRARDEAU SUNNY     45  32  60 S12       30.00R
FARMINGTON     MOSUNNY   43  31  62 S10       29.94R
POPLAR BLUFF   MOSUNNY   43  33  68 S7        30.00R
WEST PLAINS    PTSUNNY   46  31  55 S7        29.94R

$$



USA.gov is the U.S. government's official web portal to all federal, state and local government web resources and services.